TimeHST,TemperatureF,Dew PointF,Humidity,Sea Level PressureIn,VisibilityMPH,Wind Direction,Wind SpeedMPH,Gust SpeedMPH,PrecipitationIn,Events,Conditions,WindDirDegrees,DateUTC
12:53 AM,77.0,68.0,74,30.06,10.0,ENE,10.4,-,N/A,,Partly Cloudy,70,2013-10-30 10:53:00
1:53 AM,77.0,69.1,76,30.05,10.0,ENE,11.5,-,N/A,,Partly Cloudy,70,2013-10-30 11:53:00
2:53 AM,77.0,68.0,74,30.05,10.0,ENE,11.5,-,N/A,,Partly Cloudy,70,2013-10-30 12:53:00
3:28 AM,77.0,68.0,74,30.05,10.0,ENE,10.4,-,N/A,,Mostly Cloudy,70,2013-10-30 13:28:00
3:41 AM,77.0,68.0,74,30.05,10.0,ENE,11.5,-,N/A,,Mostly Cloudy,70,2013-10-30 13:41:00
3:53 AM,77.0,68.0,74,30.04,10.0,ENE,11.5,-,N/A,,Partly Cloudy,70,2013-10-30 13:53:00
4:53 AM,75.9,68.0,76,30.04,10.0,ENE,9.2,-,N/A,,Partly Cloudy,60,2013-10-30 14:53:00
5:53 AM,75.9,68.0,76,30.05,10.0,ENE,9.2,-,N/A,,Scattered Clouds,60,2013-10-30 15:53:00
6:49 AM,77.0,68.0,74,30.07,10.0,East,10.4,-,N/A,,Mostly Cloudy,80,2013-10-30 16:49:00
6:53 AM,77.0,68.0,74,30.06,10.0,ENE,9.2,-,N/A,,Overcast,60,2013-10-30 16:53:00
7:13 AM,78.8,69.8,74,30.08,10.0,ENE,11.5,-,N/A,,Mostly Cloudy,60,2013-10-30 17:13:00
7:42 AM,78.8,69.8,74,30.08,10.0,NE,11.5,-,N/A,,Mostly Cloudy,50,2013-10-30 17:42:00
7:53 AM,78.1,68.0,71,30.08,10.0,ENE,10.4,-,N/A,,Mostly Cloudy,70,2013-10-30 17:53:00
8:34 AM,78.8,69.8,74,30.10,10.0,ENE,11.5,-,N/A,,Mostly Cloudy,60,2013-10-30 18:34:00
8:53 AM,78.1,68.0,71,30.10,10.0,ENE,10.4,-,N/A,,Partly Cloudy,60,2013-10-30 18:53:00
9:53 AM,80.1,69.1,69,30.11,10.0,East,10.4,-,N/A,,Clear,80,2013-10-30 19:53:00
10:53 AM,81.0,69.1,67,30.11,10.0,East,11.5,-,N/A,,Scattered Clouds,80,2013-10-30 20:53:00
11:53 AM,81.0,68.0,65,30.08,10.0,East,11.5,-,N/A,,Clear,80,2013-10-30 21:53:00
12:53 PM,81.0,68.0,65,30.06,10.0,East,9.2,-,N/A,,Partly Cloudy,90,2013-10-30 22:53:00
1:53 PM,81.0,70.0,69,30.04,10.0,East,5.8,-,N/A,,Scattered Clouds,80,2013-10-30 23:53:00
2:53 PM,82.0,70.0,67,30.03,10.0,ENE,9.2,-,N/A,,Scattered Clouds,70,2013-10-31 00:53:00
3:53 PM,81.0,70.0,69,30.03,10.0,NE,6.9,-,N/A,,Clear,40,2013-10-31 01:53:00
4:53 PM,80.1,70.0,71,30.04,10.0,NE,9.2,-,N/A,,Partly Cloudy,40,2013-10-31 02:53:00
5:53 PM,78.1,70.0,76,30.06,10.0,NE,10.4,18.4,N/A,,Scattered Clouds,50,2013-10-31 03:53:00
6:53 PM,75.9,68.0,76,30.08,10.0,North,6.9,-,N/A,,Clear,350,2013-10-31 04:53:00
7:53 PM,75.0,70.0,84,30.10,10.0,NNW,8.1,-,N/A,,Partly Cloudy,340,2013-10-31 05:53:00
8:27 PM,75.2,69.8,83,30.12,10.0,NW,5.8,-,0.00,,Mostly Cloudy,320,2013-10-31 06:27:00
8:42 PM,73.4,69.8,88,30.13,2.0,North,3.5,-,0.02,Rain,Light Rain,360,2013-10-31 06:42:00
8:51 PM,73.4,69.8,88,30.13,10.0,NW,6.9,-,0.03,,Mostly Cloudy,320,2013-10-31 06:51:00
8:53 PM,73.9,70.0,87,30.12,10.0,NNW,5.8,-,0.03,,Scattered Clouds,330,2013-10-31 06:53:00
9:15 PM,73.4,71.6,94,30.13,2.0,NW,3.5,-,0.02,Rain,Light Rain,320,2013-10-31 07:15:00
9:18 PM,73.4,71.6,94,30.13,3.0,NW,5.8,-,0.02,Rain,Light Rain,310,2013-10-31 07:18:00
9:39 PM,73.4,71.6,94,30.13,10.0,West,6.9,-,0.02,,Mostly Cloudy,280,2013-10-31 07:39:00
9:53 PM,73.0,71.1,93,30.12,10.0,WNW,8.1,-,0.02,,Mostly Cloudy,290,2013-10-31 07:53:00
10:20 PM,-9999,-9999,N/A,30.12,10.0,NE,11.5,-,0.00,,Overcast,40,2013-10-31 08:20:00
10:53 PM,77.0,71.1,82,30.12,10.0,NE,11.5,-,0.00,,Scattered Clouds,50,2013-10-31 08:53:00
11:53 PM,77.0,71.1,82,30.10,10.0,NE,13.8,-,N/A,,Scattered Clouds,50,2013-10-31 09:53:00